Location: Newark
(22.3060°N, 114.2134°E)
Time: 07:41:15
(UTC+00:00)

Explorer 11/Cluster Stage 4 - Pass Details

Date: 02 August 2021
Orbit: 467 x 1256 km, 28.8° (Epoch: 24 September)

Event Time Altitude Azimuth Distance (km) Brightness Sun altitude
Rises 08:20:51 0° 273° (W) 3,852 11.1 35.8°
Reaches altitude 10° 08:24:48 10° 256° (WSW) 2,736 10.5 34.8°
Maximum altitude 08:28:52 17° 217° (SW) 2,083 9.3 33.9°
Drops below altitude 10° 08:32:30 10° 178° (S) 2,369 9.0 33.1°
Sets 08:35:36 0° 157° (SSE) 3,133 9.4 32.4°
